Location: Houhaj�rvi
(61.2667°N, 23.0167°E)
Time: 18:22:22
(UTC+00:00)

Meteor 2-13 Rocket - Pass Details

Date: 13 December 2019
Orbit: 937 x 957 km, 82.5° (Epoch: 22 January)

Event Time Altitude Azimuth Distance (km) Brightness Sun altitude
Rises 16:39:06 0° 171° (S) 3,594 7.5 -22.2°
Reaches altitude 10° 16:41:38 10° 166° (SSE) 2,656 6.7 -22.5°
Maximum altitude 16:47:27 51° 93° (E) 1,177 4.5 -23.2°
Enters shadow 16:48:07 49° 72° (ENE) 1,209 4.5 -23.3°
